Location: Unspecified
(35.6961°N, 0.0000°E)
Time: 13:56:38
(UTC+00:00)

Altair - Pass Details

Date: 26 May 2019
Orbit: 1501 x 1683 km, 47.2° (Epoch: 25 June)

Event Time Altitude Azimuth Distance (km) Brightness Sun altitude
Rises 23:57:10 0° 175° (S) 4,821 - -33.3°
Reaches altitude 10° 00:02:00 10° 155° (SSE) 3,872 - -33.3°
Maximum altitude 00:07:16 16° 122° (ESE) 3,461 - -33.2°
Exits shadow 00:08:49 15° 112° (ESE) 3,509 9.2 -33.2°
Drops below altitude 10° 00:12:35 10° 89° (E) 3,932 9.7 -33.1°
Sets 00:17:30 0° 70° (ENE) 4,935 10.5 -33.1°
